$DATE,$TIME,DM0600B,DM0602B,DM0604B,DM0614B,DM0616B,DM0618B,DM0624B,DM0628B,DM0630B,DM0634B,DM0606B,DM0608B,DM0610B
11/03/94,00:00:00,74,0,20,42,17,16,32,61,95,0,6,6,6
11/03/94,00:05:00,16,1,43,48,16,15,31,61,95,0,6,16,7
11/03/94,00:10:00,37,0,44,33,12,12,24,61,95,0,6,16,7
11/03/94,00:15:00,45,29,43,44,12,12,25,61,95,0,6,12,7
11/03/94,00:20:00,37,0,40,46,15,14,28,61,95,0,6,9,6
11/03/94,00:25:00,57,3,51,43,19,18,36,61,106,0,6,8,6
11/03/94,00:30:00,83,9,47,49,20,19,38,61,130,0,6,8,6
11/03/94,00:35:00,31,2,35,39,21,19,39,61,130,0,6,18,6
11/03/94,00:40:00,65,28,24,35,21,20,41,61,132,0,13,17,6
11/03/94,00:45:00,66,3,40,32,22,21,42,61,132,0,15,12,6
11/03/94,00:50:00,65,0,42,27,25,23,48,61,130,0,13,10,6
11/03/94,00:55:00,54,1,50,47,30,28,57,61,132,0,10,8,6
11/03/94,01:00:00,80,0,46,38,32,30,60,61,132,0,9,7,6
11/03/94,01:05:00,44,9,46,34,34,31,62,61,132,0,8,6,6
11/03/94,01:10:00,21,0,33,21,32,29,59,61,132,0,7,9,7
11/03/94,01:15:00,39,8,45,42,31,29,58,60,132,0,7,18,7
11/03/94,01:20:00,58,5,56,41,32,29,60,61,132,0,7,14,7
11/03/94,01:25:00,42,11,38,40,29,26,54,61,132,0,6,10,6
11/03/94,01:30:00,66,0,44,39,28,26,52,61,125,0,6,8,6
11/03/94,01:35:00,60,0,48,42,25,23,47,61,132,0,6,7,6
11/03/94,01:40:00,42,4,60,36,24,22,45,61,132,0,9,15,6
11/03/94,01:45:00,38,12,48,33,25,23,47,61,132,0,16,17,6
11/03/94,01:50:00,40,15,54,35,25,23,46,61,132,0,14,12,6
11/03/94,01:55:00,50,7,36,32,24,22,44,61,131,0,11,10,6
11/03/94,02:00:00,38,5,41,41,21,20,40,61,132,0,9,8,6
11/03/94,02:05:00,43,31,46,45,19,18,36,61,134,0,8,7,6
11/03/94,02:10:00,23,29,48,27,18,17,35,61,134,0,8,9,6
11/03/94,02:15:00,57,19,46,36,17,16,32,61,134,0,7,20,7
11/03/94,02:20:00,78,5,62,35,16,16,32,61,134,0,8,15,7
11/03/94,02:25:00,51,3,39,33,16,15,30,61,134,0,15,11,6
11/03/94,02:30:00,45,0,56,30,15,15,30,62,135,0,17,10,6
11/03/94,02:35:00,49,30,38,39,15,14,28,62,134,0,13,19,6
11/03/94,02:40:00,59,22,42,49,15,14,28,61,136,0,11,17,6
11/03/94,02:45:00,49,18,31,40,16,15,30,61,136,0,9,12,6
11/03/94,02:50:00,53,17,40,45,15,14,27,61,158,0,10,10,6
11/03/94,02:55:00,32,13,51,38,15,14,29,61,136,0,18,19,6
11/03/94,03:00:00,51,24,42,41,15,15,30,61,136,0,16,17,6
11/03/94,03:05:00,23,1,42,44,16,15,30,61,136,0,13,12,6
11/03/94,03:10:00,48,9,51,43,15,14,29,61,136,0,11,10,6
11/03/94,03:15:00,58,2,40,50,14,14,28,61,136,0,9,11,6
11/03/94,03:20:00,38,0,46,47,14,13,27,61,136,0,15,21,14
11/03/94,03:25:00,59,16,42,48,12,12,24,61,136,0,18,17,15
11/03/94,03:30:00,50,1,50,44,12,11,23,61,136,0,14,12,11
11/03/94,03:35:00,71,0,65,48,10,10,21,61,136,0,11,10,9
11/03/94,03:40:00,79,0,52,55,8,8,16,61,136,0,12,19,8
11/03/94,03:45:00,38,0,47,59,8,8,17,61,136,0,20,21,12
11/03/94,03:50:00,49,1,61,63,8,8,15,61,136,0,17,14,17
11/03/94,03:55:00,59,1,46,45,8,7,15,62,145,0,13,14,12
11/03/94,04:00:00,42,3,31,57,7,7,14,61,136,0,13,24,10
11/03/94,04:05:00,73,3,63,40,6,6,13,61,136,0,20,18,9
11/03/94,04:10:00,31,11,54,62,6,7,13,62,136,0,16,13,8
11/03/94,04:15:00,54,40,40,56,7,7,14,61,136,0,13,18,18
11/03/94,04:20:00,65,46,34,29,5,6,12,61,136,0,10,19,14
11/03/94,04:25:00,34,21,43,37,8,8,15,61,136,0,9,14,11
11/03/94,04:30:00,30,19,56,39,7,7,15,62,136,0,14,12,9
11/03/94,04:35:00,38,27,30,53,6,6,12,62,138,0,20,22,8
11/03/94,04:40:00,54,8,21,42,7,7,15,61,136,0,15,18,7
11/03/94,04:45:00,59,14,44,35,7,7,14,61,136,0,12,12,13
11/03/94,04:50:00,72,12,50,29,5,6,12,61,136,0,10,16,17
11/03/94,04:55:00,58,30,40,35,7,7,14,59,136,0,17,22,12
11/03/94,05:00:00,66,18,52,53,7,7,13,59,136,0,17,15,10
11/03/94,05:05:00,60,5,41,45,6,6,13,59,128,0,13,11,9
11/03/94,05:10:00,49,32,47,40,6,6,13,59,136,0,11,12,8
11/03/94,05:15:00,52,31,54,48,5,6,11,59,136,0,10,22,7
11/03/94,05:20:00,58,41,43,48,5,5,11,59,136,0,14,17,7
11/03/94,05:25:00,38,23,40,47,5,6,11,60,136,0,20,12,12
11/03/94,05:30:00,57,20,42,35,6,6,12,61,136,0,16,10,16
11/03/94,05:35:00,47,13,42,57,6,6,12,61,136,0,12,17,12
11/03/94,05:40:00,59,8,49,49,6,6,12,61,134,0,10,20,10
11/03/94,05:45:00,60,12,43,39,5,5,10,61,134,0,12,14,8
11/03/94,05:50:00,43,1,78,50,4,5,10,61,134,0,21,16,17
11/03/94,05:55:00,78,0,36,33,4,4,9,61,143,0,19,23,15
11/03/94,06:00:00,70,0,43,53,4,5,9,61,135,0,14,16,11
11/03/94,06:05:00,53,28,48,46,5,5,10,61,133,0,13,16,11
11/03/94,06:10:00,50,24,47,50,5,5,10,61,133,0,20,23,18
11/03/94,06:15:00,68,12,56,45,7,8,15,61,133,0,17,15,13
11/03/94,06:20:00,35,6,73,51,9,9,18,61,133,0,13,12,10
11/03/94,06:25:00,16,19,49,43,8,8,15,62,133,0,10,16,9
11/03/94,06:30:00,37,13,38,34,6,6,13,61,133,0,16,22,7
11/03/94,06:35:00,49,36,53,47,6,6,12,62,132,0,19,15,7
11/03/94,06:40:00,47,19,52,50,5,5,11,61,133,0,15,11,7
11/03/94,06:45:00,72,9,43,48,6,6,12,61,133,0,12,16,17
11/03/94,06:50:00,63,0,64,49,5,5,12,61,133,0,10,21,15
11/03/94,06:55:00,59,0,55,58,6,6,12,62,133,0,18,14,11
11/03/94,07:00:00,54,0,36,47,7,7,13,62,124,0,21,18,9
11/03/94,07:05:00,33,0,48,45,6,6,13,61,124,0,16,23,9
11/03/94,07:10:00,22,5,48,44,6,6,13,61,124,0,12,15,19
11/03/94,07:15:00,77,5,22,48,4,5,9,62,124,0,11,12,14
11/03/94,07:20:00,25,11,56,40,4,5,10,61,124,0,18,21,10
11/03/94,07:25:00,65,19,43,31,3,3,8,61,124,0,19,19,9
11/03/94,07:30:00,63,25,56,62,3,4,8,61,124,0,14,13,8
11/03/94,07:35:00,32,0,27,37,4,4,9,62,124,0,11,17,18
11/03/94,07:40:00,64,41,30,28,4,5,9,62,133,0,15,23,14
11/03/94,07:45:00,58,18,27,38,5,5,10,62,132,0,20,15,11
11/03/94,07:50:00,39,0,51,32,4,4,9,62,133,0,16,14,13
11/03/94,07:55:00,54,2,51,40,4,4,8,61,133,0,12,24,18
11/03/94,08:00:00,69,29,53,44,3,4,8,61,133,0,14,17,13
11/03/94,08:05:00,56,27,32,38,4,5,9,61,133,0,22,14,10
11/03/94,08:10:00,43,14,64,37,3,3,7,61,133,0,18,23,14
11/03/94,08:15:00,67,24,33,45,3,4,7,62,132,0,14,18,15
11/03/94,08:20:00,41,0,42,45,4,5,10,62,133,0,12,13,11
11/03/94,08:25:00,77,8,55,44,4,5,9,61,133,0,18,20,12
11/03/94,08:30:00,10,11,45,40,4,4,9,62,133,0,20,20,20
11/03/94,08:35:00,0,0,40,54,9,6,14,62,134,0,15,17,13
11/03/94,08:40:00,33,3,78,59,6,4,10,62,133,0,22,26,23
11/03/94,08:45:00,62,0,38,60,9,5,15,61,133,0,20,20,16
11/03/94,08:50:00,69,0,35,36,8,5,14,61,133,0,15,14,12
11/03/94,08:55:00,49,2,50,57,11,7,19,61,133,0,16,22,15
11/03/94,09:00:00,64,5,48,44,16,9,26,61,133,0,21,20,17
11/03/94,09:05:00,77,0,63,51,18,11,30,61,133,0,17,13,13
11/03/94,09:10:00,71,0,40,37,18,11,31,62,133,0,13,15,10
11/03/94,09:15:00,35,0,53,59,21,12,33,61,133,0,11,23,9
11/03/94,09:20:00,33,0,56,34,20,11,32,62,133,0,17,16,12
11/03/94,09:25:00,14,0,76,37,18,11,32,61,133,0,19,12,17
11/03/94,09:30:00,31,4,36,44,15,9,23,61,133,0,15,18,12
11/03/94,09:35:00,75,0,29,36,14,8,21,62,133,0,11,21,10
11/03/94,09:40:00,21,0,44,57,14,8,21,62,133,0,15,14,13
11/03/94,09:45:00,54,0,65,42,13,7,21,61,131,0,20,16,17
11/03/94,09:50:00,68,0,22,48,11,7,20,61,130,0,15,21,12
11/03/94,09:55:00,30,0,65,17,14,8,24,62,131,0,12,14,10
11/03/94,10:00:00,39,0,30,44,15,9,24,62,135,0,15,15,13
11/03/94,10:05:00,84,0,58,62,12,7,19,62,134,0,20,23,17
11/03/94,10:10:00,67,1,35,32,14,8,22,61,134,0,16,16,12
11/03/94,10:15:00,37,9,51,39,14,8,22,61,122,0,12,12,10
11/03/94,10:20:00,42,0,58,45,17,10,25,61,122,0,11,20,8
11/03/94,10:25:00,56,32,43,30,17,10,27,61,121,0,17,19,8
11/03/94,10:30:00,62,5,42,39,17,9,24,59,130,0,16,13,7
11/03/94,10:35:00,58,9,49,36,15,9,25,59,130,0,12,10,7
11/03/94,10:40:00,32,3,41,52,15,9,24,61,131,0,10,17,9
11/03/94,10:45:00,56,5,39,43,13,8,21,61,130,0,13,20,17
11/03/94,10:50:00,51,37,44,43,9,6,16,61,130,0,19,14,12
11/03/94,10:55:00,77,19,44,45,9,6,16,61,130,0,16,11,10
11/03/94,11:00:00,34,18,27,51,7,4,12,61,130,0,13,16,9
11/03/94,11:05:00,57,16,34,42,6,4,11,61,130,0,11,21,8
11/03/94,11:10:00,33,10,74,41,7,4,11,61,131,0,10,14,7
11/03/94,11:15:00,39,22,41,46,5,4,9,61,124,0,18,14,18
11/03/94,11:20:00,54,24,35,48,4,3,8,61,134,0,19,22,15
11/03/94,11:25:00,51,4,48,43,4,3,8,61,135,0,14,16,11
11/03/94,11:30:00,48,14,60,39,5,3,9,61,135,0,12,13,9
11/03/94,11:35:00,46,8,42,28,5,3,9,61,135,0,16,22,19
11/03/94,11:40:00,47,2,50,44,4,3,7,61,135,0,20,19,15
11/03/94,11:45:00,47,0,37,37,4,3,7,61,135,0,15,13,11
11/03/94,11:50:00,39,0,49,56,3,2,6,61,135,0,14,20,18
11/03/94,11:55:00,29,0,34,50,3,2,6,62,135,0,22,22,17
11/03/94,12:00:00,43,14,57,44,3,2,6,62,139,0,18,15,12
11/03/94,12:05:00,55,0,52,47,4,3,7,62,139,0,14,21,16
11/03/94,12:10:00,21,3,46,51,5,3,10,62,138,0,20,23,19
11/03/94,12:15:00,53,0,47,44,10,6,18,62,138,0,20,15,13
11/03/94,12:20:00,56,12,46,55,6,4,10,62,138,0,15,14,10
11/03/94,12:25:00,29,27,49,52,4,3,8,62,135,0,12,24,9
11/03/94,12:30:00,49,21,41,57,5,3,9,62,134,0,15,18,12
11/03/94,12:35:00,47,21,63,43,7,4,11,62,136,0,21,13,18
11/03/94,12:40:00,58,19,72,53,7,5,13,61,136,0,16,15,13
11/03/94,12:45:00,48,9,31,44,6,4,10,61,136,0,13,24,10
11/03/94,12:50:00,56,0,39,44,3,2,5,62,143,0,13,17,12
11/03/94,12:55:00,46,0,64,47,2,1,4,62,136,0,21,17,21
11/03/94,13:00:00,13,0,42,61,1,1,4,62,151,0,20,26,14
11/03/94,13:05:00,49,0,41,57,1,1,3,62,137,0,17,19,22
11/03/94,13:10:00,24,0,13,40,1,1,3,62,136,0,24,24,20
11/03/94,13:15:00,18,0,14,31,1,1,3,62,136,0,26,29,21
11/03/94,13:20:00,86,0,70,55,1,1,3,62,137,0,18,19,19
11/03/94,13:25:00,65,0,59,50,1,1,3,62,137,0,24,26,23
11/03/94,13:30:00,58,0,29,57,2,1,3,62,156,0,23,23,18
11/03/94,13:35:00,13,0,47,60,1,1,3,62,137,0,17,18,18
11/03/94,13:40:00,69,0,59,45,0,1,2,62,137,0,22,27,21
11/03/94,13:45:00,62,0,67,55,0,1,2,62,134,0,22,21,13
11/03/94,13:50:00,55,0,29,33,0,1,2,62,133,0,16,16,21
11/03/94,13:55:00,55,0,55,38,0,1,2,62,142,0,19,25,17
11/03/94,14:00:00,40,0,58,42,0,1,2,62,133,0,22,19,12
11/03/94,14:05:00,61,7,53,56,1,1,4,62,133,0,17,17,18
11/03/94,14:10:00,64,0,64,55,1,1,3,62,133,0,13,25,18
11/03/94,14:15:00,68,0,56,54,1,1,2,61,133,0,19,18,13
11/03/94,14:20:00,67,0,57,50,1,1,3,62,133,0,21,15,12
11/03/94,14:25:00,63,8,66,53,2,2,5,61,133,0,16,24,20
11/03/94,14:30:00,43,0,54,58,3,2,6,62,133,0,12,18,14
11/03/94,14:35:00,59,0,54,57,4,3,7,62,133,0,18,16,11
11/03/94,14:40:00,72,0,55,48,3,2,6,62,136,0,22,24,20
11/03/94,14:45:00,77,0,48,44,5,3,8,61,140,0,16,17,16
11/03/94,14:50:00,91,0,45,34,5,3,9,62,142,0,16,17,13
11/03/94,14:55:00,14,0,69,39,3,2,6,61,141,0,23,26,22
11/03/94,15:00:00,19,0,61,48,1,1,3,62,141,0,19,18,15
11/03/94,15:05:00,48,0,19,56,1,1,3,62,141,0,16,19,18
11/03/94,15:10:00,79,0,68,61,1,1,3,62,139,0,23,27,21
11/03/94,15:15:00,89,0,31,52,0,1,2,62,139,0,21,18,14
11/03/94,15:20:00,23,0,26,78,1,1,3,62,140,0,21,23,28
11/03/94,15:25:00,30,0,17,57,1,1,3,62,140,0,28,30,18
11/03/94,15:30:00,13,0,71,27,1,1,3,62,131,0,22,19,24
11/03/94,15:35:00,20,0,32,68,1,1,2,62,130,0,17,23,17
11/03/94,15:40:00,41,0,42,23,0,0,1,62,131,0,22,28,20
11/03/94,15:45:00,15,0,66,42,0,1,2,62,130,0,23,17,19
11/03/94,15:50:00,37,0,20,63,1,1,3,62,130,0,17,23,14
11/03/94,15:55:00,65,0,40,28,3,2,6,62,130,0,22,24,23
11/03/94,16:00:00,60,0,68,40,4,3,8,62,130,0,23,15,15
11/03/94,16:05:00,71,0,47,64,6,4,10,62,130,0,17,20,15
11/03/94,16:10:00,7,0,45,49,10,6,17,62,130,0,16,24,20
11/03/94,16:15:00,5,0,48,53,23,13,33,62,130,0,22,16,13
11/03/94,16:20:00,10,0,68,40,12,7,19,62,130,0,17,16,10
11/03/94,16:25:00,61,0,8,61,14,8,23,61,129,0,13,24,20
11/03/94,16:30:00,20,0,32,54,9,5,15,62,130,0,18,17,14
11/03/94,16:35:00,15,0,0,63,9,5,14,62,130,0,24,21,19
11/03/94,16:40:00,80,0,57,53,9,5,15,62,130,0,18,25,18
11/03/94,16:45:00,12,0,9,17,10,6,17,62,131,0,19,19,20
11/03/94,16:50:00,3,0,10,71,13,7,19,62,131,0,26,27,20
11/03/94,16:55:00,66,0,61,49,12,7,20,62,126,0,21,21,14
11/03/94,17:00:00,53,0,1,50,12,7,19,62,126,0,15,17,19
11/03/94,17:05:00,78,0,65,50,13,8,20,61,126,0,19,25,18
11/03/94,17:10:00,71,0,41,55,12,7,20,61,125,0,19,18,13
11/03/94,17:15:00,14,0,32,42,12,7,20,61,126,0,14,13,10
11/03/94,17:20:00,21,0,3,53,14,8,22,61,126,0,13,22,18
11/03/94,17:25:00,40,0,59,36,14,8,22,61,125,0,19,19,16
11/03/94,17:30:00,11,0,49,57,18,10,28,61,125,0,16,13,12
11/03/94,17:35:00,33,4,45,46,20,12,31,61,125,0,12,11,10
11/03/94,17:40:00,61,11,59,36,25,14,37,61,133,0,10,21,9
11/03/94,17:45:00,65,0,40,34,21,13,33,61,125,0,9,18,8
11/03/94,17:50:00,52,0,44,54,21,12,32,61,125,0,11,13,7
11/03/94,17:55:00,44,8,51,53,24,14,37,61,117,0,18,10,7
11/03/94,18:00:00,33,18,40,40,23,14,34,61,116,0,15,8,7
11/03/94,18:05:00,53,0,46,44,22,13,34,61,116,0,11,7,7
11/03/94,18:10:00,38,28,37,32,22,13,33,61,116,0,9,13,7
11/03/94,18:15:00,41,25,40,37,21,12,34,61,117,0,8,17,6
11/03/94,18:20:00,34,30,50,37,20,12,31,61,116,0,8,13,6
11/03/94,18:25:00,39,33,46,38,16,10,25,61,116,0,7,10,7
11/03/94,18:30:00,41,29,48,39,14,9,23,61,116,0,7,8,7
11/03/94,18:35:00,32,2,32,35,14,8,22,61,116,0,7,7,7
11/03/94,18:40:00,44,30,30,38,13,8,22,61,116,0,6,13,7
11/03/94,18:45:00,53,28,58,40,18,11,29,62,133,0,6,19,6
11/03/94,18:50:00,72,12,55,43,16,10,29,61,133,0,8,13,6
11/03/94,18:55:00,62,14,48,51,21,12,33,61,133,0,17,11,6
11/03/94,19:00:00,50,20,37,39,28,16,44,61,133,0,15,9,6
11/03/94,19:05:00,56,19,31,34,33,19,50,61,133,0,12,8,6
11/03/94,19:10:00,56,33,51,26,34,19,52,61,133,0,10,7,6
11/03/94,19:15:00,24,3,37,48,24,14,38,61,133,0,8,8,6
11/03/94,19:20:00,17,14,56,29,20,12,34,62,134,0,11,19,12
11/03/94,19:25:00,81,0,38,42,19,12,29,61,134,0,19,21,17
11/03/94,19:30:00,69,8,33,47,19,11,30,61,133,0,16,14,12
11/03/94,19:35:00,38,9,32,42,20,12,31,61,134,0,13,11,10
11/03/94,19:40:00,58,0,58,44,19,11,29,61,133,0,10,11,9
11/03/94,19:45:00,51,12,52,48,20,12,31,61,134,0,9,21,8
11/03/94,19:50:00,48,17,54,49,17,10,27,62,134,0,9,16,7
11/03/94,19:55:00,52,18,41,47,18,10,28,62,134,0,17,12,7
11/03/94,20:00:00,72,0,48,54,17,10,25,62,134,0,18,13,7
11/03/94,20:05:00,79,7,40,58,18,11,28,62,134,0,13,22,7
11/03/94,20:10:00,53,8,47,50,23,13,35,62,134,0,11,16,6
11/03/94,20:15:00,54,0,58,53,27,16,43,62,134,0,9,11,6
11/03/94,20:20:00,53,22,62,52,32,19,51,62,133,0,8,9,6
11/03/94,20:25:00,39,0,25,40,35,20,54,61,133,0,10,13,6
11/03/94,20:30:00,71,5,39,36,42,24,63,61,133,0,16,19,7
11/03/94,20:35:00,41,2,55,26,79,46,123,61,137,0,14,14,7
11/03/94,20:40:00,,,,,,,,,,,,,
11/03/94,20:45:00,,,,,,,,,,,,,
11/03/94,20:50:00,,,,,,,,,,,,,
11/03/94,20:55:00,,,,,,,,,,,,,
11/03/94,21:00:00,,,,,,,,,,,,,
11/03/94,21:05:00,,,,,,,,,,,,,
11/03/94,21:10:00,,,,,,,,,,,,,
11/03/94,21:15:00,,,,,,,,,,,,,
11/03/94,21:20:00,,,,,,,,,,,,,
11/03/94,21:25:00,63,4,45,42,0,0,0,61,137,0,7,7,6
11/03/94,21:30:00,60,11,36,27,55,49,94,61,137,0,12,16,6
11/03/94,21:35:00,45,17,49,24,41,37,74,61,132,0,13,15,7
11/03/94,21:40:00,34,5,50,32,39,35,72,60,132,0,11,11,6
11/03/94,21:45:00,51,14,45,44,37,33,73,60,132,0,9,9,6
11/03/94,21:50:00,58,7,36,40,37,34,68,61,132,0,8,8,6
11/03/94,21:55:00,49,6,44,42,44,39,83,61,132,0,7,7,6
11/03/94,22:00:00,49,0,32,35,53,47,97,60,132,0,7,6,6
11/03/94,22:05:00,36,3,36,31,56,50,103,60,132,0,6,6,6
11/03/94,22:10:00,49,4,48,45,0,0,0,60,132,0,6,6,6
11/03/94,22:15:00,20,7,41,50,0,0,0,61,133,0,7,8,6
11/03/94,22:20:00,71,2,31,33,49,44,90,60,133,0,14,19,6
11/03/94,22:25:00,61,5,47,29,56,51,110,60,132,0,14,15,6
11/03/94,22:30:00,46,14,26,30,0,0,0,60,140,0,12,11,6
11/03/94,22:35:00,29,2,45,41,0,0,0,61,138,0,10,9,7
11/03/94,22:40:00,52,6,37,31,0,0,0,61,132,0,8,14,7
11/03/94,22:45:00,70,0,51,43,0,0,0,61,133,0,8,12,7
11/03/94,22:50:00,39,2,34,30,100,90,168,60,132,0,11,9,6
11/03/94,22:55:00,72,4,46,47,0,0,0,61,133,0,11,8,7
11/03/94,23:00:00,56,0,37,21,85,75,154,60,129,0,9,14,6
11/03/94,23:05:00,37,0,47,40,0,0,0,61,130,0,8,13,6
11/03/94,23:10:00,11,0,56,32,91,81,169,61,129,0,9,10,6
11/03/94,23:15:00,72,0,48,21,0,0,0,61,130,0,10,8,6
11/03/94,23:20:00,49,0,46,49,95,85,171,60,133,0,9,11,6
11/03/94,23:25:00,49,2,34,26,0,0,0,60,128,0,8,15,7
11/03/94,23:30:00,62,0,50,53,0,0,0,61,136,0,8,11,6
11/03/94,23:35:00,40,0,47,23,89,78,163,60,129,0,11,9,6
11/03/94,23:40:00,36,0,58,45,0,0,0,61,130,0,11,8,7
11/03/94,23:45:00,21,2,47,38,63,55,128,60,129,0,10,13,7
11/03/94,23:50:00,19,0,33,32,65,56,124,60,155,0,8,14,7
11/03/94,23:55:00,27,2,50,57,0,0,0,61,130,0,8,11,6
11/04/94,00:00:00,70,1,45,39,36,33,67,59,130,0,9,10,6
